Terug naar catalogus

STARLINK-30086

ActiefCommunicatieVLEO
NORAD 56297·PAYLOAD·🇺🇸 United States

Gelanceerd Apr 19, 2023 vanaf Cape Canaveral Space Force Station

Loading…

Volgende Passages (komende 24 uur)

TLE

VersSource: CelesTrak SupGP

Epoch: Sep 14, 2026, 21:33 UTC

1 56297C 23056M   26257.89840278  .00030118  00000+0  10908-2 0  2572
2 56297  43.0022 220.4907 0001339 264.1108 134.3480 15.27566754    16

Volg STARLINK-30086 in realtime met AllMySat

Download on the App Store